London-Corbin, KY

8:34 AM EST on November 19, 2017 (GMT -0500)
London-Corbin / McKee

Weather History for KLOZ - May, 2013

Change the Weather History Date:

Tuesday, May 7, 2013

  Actual Average Record
Temperature  
Mean Temperature 58 °F 62 °F  
Max Temperature 68 °F 74 °F 88 °F (2014)
Min Temperature 47 °F 51 °F 34 °F (1989)
Degree Days  
Heating Degree Days 7 4  
Month to date heating degree days 36 32  
Since 1 July heating degree days 4465 4133  
Cooling Degree Days 0 2  
Month to date cooling degree days 1 9  
Year to date cooling degree days 21 35  
Growing Degree Days 7 (Base 50)    
Moisture  
Dew Point 51 °F    
Average Humidity 78    
Maximum Humidity 100    
Minimum Humidity 56    
Precipitation  
Precipitation 0.05 in 0.17 in 4.08 in (1984)
Month to date precipitation 2.68 1.11  
Year to date precipitation 21.15  
Snow  
Snow 0.00 in - - ()
Month to date snowfall 0.0  
Snow Depth 0.00 in    
Sea Level Pressure  
Sea Level Pressure 29.94 in    
Wind  
Wind Speed 3 mph (NW)    
Max Wind Speed 12 mph    
Max Gust Speed 15 mph    
Visibility 7 miles    
Events Fog , Rain    
T = Trace of Precipitation, MM = Missing Value Source: NWS Daily Summary

Daily Weather History Graph

Daily Weather History Graph

Search for Another Location

Airport or City:

Trip Planner

Search our weather history database for the weather conditions in past years. The results will help you decide how hot, cold, wet, or windy it might be!

Date:

Astronomy

May. 07, 2013 Rise Set
Actual Time 6:35 AM EDT 8:31 PM EDT
Civil Twilight 6:06 AM EDT 8:59 PM EDT
Nautical Twilight 5:32 AM EDT 9:34 PM EDT
Astronomical Twilight 4:55 AM EDT 10:11 PM EDT
Moon 5:05 AM EDT (5/7) 6:32 PM EDT (5/7)
Length of Visible Light 14h 52m
Length of Day
13h 55m
Waning Crescent, 5% of the Moon is Illuminated
May 7
Waning Crescent
May 9
New
May 18
First Quarter
May 25
Full
May 31
Last Quarter

Hourly Weather History & Observations

Time (EDT) Temp. Dew Point Humidity Pressure Visibility Wind Dir Wind Speed Gust Speed Precip Events Conditions
12:40 AM 51.8 °F 50.0 °F 94% 29.91 in 2.0 mi Calm Calm - N/A   Scattered Clouds
12:53 AM 51.1 °F 50.0 °F 96% 29.90 in 0.8 mi Calm Calm - N/A   Mostly Cloudy
1:07 AM 50.0 °F 48.2 °F 94% 29.91 in 0.5 mi Calm Calm - N/A Fog Fog
1:53 AM 48.9 °F 48.0 °F 97% 29.90 in 0.2 mi Calm Calm - N/A Fog Fog
2:53 AM 48.0 °F 46.9 °F 96% 29.89 in 0.2 mi Calm Calm - 0.01 in Fog Fog
3:53 AM 48.0 °F 48.0 °F 100% 29.90 in 0.2 mi Calm Calm - N/A Fog Fog
4:53 AM 48.9 °F 48.0 °F 97% 29.91 in 0.5 mi Calm Calm - N/A Fog Fog
5:53 AM 50.0 °F 48.9 °F 96% 29.91 in 0.5 mi Calm Calm - N/A Fog Fog
6:36 AM 50.0 °F 48.2 °F 94% 29.92 in 1.8 mi Calm Calm - N/A   Overcast
6:40 AM 50.0 °F 48.2 °F 94% 29.93 in 3.0 mi Calm Calm - N/A   Overcast
6:53 AM 48.9 °F 48.9 °F 100% 29.93 in 6.0 mi Calm Calm - N/A   Overcast
7:53 AM 48.9 °F 48.9 °F 100% 29.95 in 10.0 mi Calm Calm - N/A   Overcast
8:53 AM 50.0 °F 48.9 °F 96% 29.96 in 10.0 mi West 4.6 mph - N/A   Overcast
9:53 AM 52.0 °F 50.0 °F 93% 29.97 in 10.0 mi Calm Calm - N/A   Overcast
10:20 AM 53.6 °F 51.8 °F 94% 29.97 in 10.0 mi Calm Calm - N/A   Overcast
10:43 AM 55.4 °F 50.0 °F 82% 29.98 in 10.0 mi Calm Calm - N/A   Overcast
10:53 AM 55.0 °F 51.1 °F 86% 29.97 in 10.0 mi WNW 3.5 mph - N/A   Overcast
11:53 AM 57.9 °F 51.1 °F 78% 29.97 in 10.0 mi NW 3.5 mph - N/A   Overcast
12:28 PM 57.2 °F 51.8 °F 82% 29.98 in 10.0 mi Calm Calm - N/A   Overcast
12:53 PM 59.0 °F 53.1 °F 81% 29.97 in 10.0 mi Variable 3.5 mph - 0.00 in Rain Light Rain
1:53 PM 62.1 °F 53.1 °F 72% 29.96 in 10.0 mi WNW 3.5 mph - 0.00 in   Overcast
2:30 PM 64.4 °F 53.6 °F 68% 29.96 in 10.0 mi NW 4.6 mph - N/A   Mostly Cloudy
2:53 PM 64.9 °F 52.0 °F 63% 29.94 in 10.0 mi NNW 4.6 mph - N/A   Mostly Cloudy
3:53 PM 66.0 °F 51.1 °F 59% 29.92 in 10.0 mi WNW 6.9 mph - N/A   Mostly Cloudy
4:53 PM 66.9 °F 51.1 °F 57% 29.91 in 10.0 mi North 9.2 mph - N/A   Overcast
5:53 PM 66.9 °F 51.1 °F 57% 29.91 in 10.0 mi NNW 8.1 mph - N/A   Partly Cloudy
6:53 PM 66.0 °F 50.0 °F 56% 29.91 in 10.0 mi NW 4.6 mph - N/A   Mostly Cloudy
7:53 PM 63.0 °F 54.0 °F 72% 29.93 in 10.0 mi WNW 4.6 mph - N/A   Overcast
8:53 PM 61.0 °F 55.0 °F 81% 29.94 in 10.0 mi West 3.5 mph - N/A   Overcast
9:53 PM 59.0 °F 57.0 °F 93% 29.96 in 8.0 mi Calm Calm - 0.04 in Rain Light Rain
10:53 PM 57.9 °F 55.9 °F 93% 29.96 in 10.0 mi West 4.6 mph - 0.01 in   Overcast
11:53 PM 57.9 °F 55.9 °F 93% 29.95 in 10.0 mi Calm Calm - N/A   Overcast